Regional Weather Roundup
Issued by NWS

Home | Current Version | Previous Version | Graphics & Text | Print | Product List | Glossary On
Versions: 1 2 3 4 5 6 7 8 9 10 11 12 13 14 15 16 17 18 19 20 21 22 23 24 25 26 27 28 29 30 31 32 33 34 35 36 37 38 39 40 41 42 43 44 45 46 47 48 49 50
000
ASUS43 KMKX 061521
RWRWI

WISCONSIN REGIONAL WEATHER ROUNDUP
NATIONAL WEATHER SERVICE MILWAUKEE/SULLIVAN WI
1000 AM CDT MON JUL 06 2015

NOTE: "FAIR" INDICATES FEW OR NO CLOUDS BELOW 12,000 FEET WITH NO
SIGNIFICANT WEATHER AND/OR OBSTRUCTIONS TO VISIBILITY.

WIZ001-002-006>008-014>016-023>028-061600-
NORTHWEST WISCONSIN

CITY           SKY/WX    TMP DP  RH WIND       PRES   REMARKS
SUPERIOR ARPT  LGT RAIN  61  60  97 NE8       29.88R
ASHLAND        LGT RAIN  62  62 100 NE14      29.84S FOG
HAYWARD        LGT RAIN  68  66  93 E3        29.82R
SIREN          DRIZZLE   68  67  96 CALM      29.81R
CUMBERLAND     RAIN      68  64  88 SE5       29.81S
RICE LAKE      DRIZZLE   68  66  93 E3        29.82S
CHETEK         DRIZZLE   68  67  96 MISG      29.81R
LADYSMITH      DRIZZLE   70  67  92 E7        29.83F
EAU CLAIRE     CLOUDY    70  68  93 SE6       29.80R
MENOMONIE      CLOUDY    71  70  98 SE6       29.80R
NEW RICHMOND   CLOUDY    70  69  98 CALM      29.81R
OSCEOLA        LGT RAIN  71  71 100 CALM      29.83R
$$

WIZ003>005-009-010-017-018-061600-
NORTH CENTRAL WISCONSIN

CITY           SKY/WX    TMP DP  RH WIND       PRES   REMARKS
MANITOWISH WTR DRIZZLE   67  67 100 CALM      29.85F
ARBOR VITAE    RAIN      69  67  94 S6        29.85F
WOODRUFF       RAIN      69  67  94 S6        29.85F
RHINELANDER    LGT RAIN  68  66  93 S5        29.87S FOG
EAGLE RIVER    LGT RAIN  66  66 100 CALM      29.86F
LAND O LAKES   LGT RAIN  68  67  97 SE3       29.87F
PHILLIPS       DRIZZLE   67  67  99 SE5       29.83R
TOMAHAWK       LGT RAIN  67  65  96 CALM      29.86F
MEDFORD        RAIN      66  66  99 SE8       29.85S
MERRILL        CLOUDY    67  67 100 SE3       29.86F FOG
$$

WIZ029-030-035-036-043>047-061600-
CENTRAL WISCONSIN

CITY           SKY/WX    TMP DP  RH WIND       PRES   REMARKS
WAUSAU         CLOUDY    69  66  90 SW7       29.86R FOG
MOSINEE        LGT RAIN  68  68 100 S14       29.89R
MARSHFIELD     CLOUDY    71  67  87 S9        29.86F FOG
STEVENS POINT  RAIN      67  66  97 SW7       29.89R
WAUPACA        LGT RAIN  74  71  89 SW6       29.88R
WAUTOMA        CLOUDY    74  70  87 SW10      29.89R
WISC RAPIDS    RAIN      70  67  90 W6        29.90R FOG
CAMP DOUGLAS   CLOUDY    72  72 100 S6        29.86F
$$

WIZ011>013-019>022-031-037>040-048>050-061600-
NORTHEAST WISCONSIN

CITY           SKY/WX    TMP DP  RH WIND       PRES   REMARKS
ANTIGO         CLOUDY    66  65  96 S6        29.89F FOG
SHAWANO        CLOUDY    74  66  75 SW6       29.88R
OCONTO         CLOUDY    74  69  82 S10       29.87S
STURGEON BAY   CLOUDY    72  63  73 S13       29.91S
GREEN BAY      CLOUDY    76  68  76 S10       29.88F HAZE
MANITOWOC      CLOUDY    70  64  81 MISG      29.91F HAZE
APPLETON       CLOUDY    73  64  73 S12       29.88F HAZE
CLINTONVILLE   CLOUDY    72  64  78 SW6       29.87R
OSHKOSH        CLOUDY    75  68  78 S15G22    29.87F HAZE
$$

WIZ032>034-041-042-053>061-061600-
SOUTHWEST WISCONSIN

CITY           SKY/WX    TMP DP  RH WIND       PRES   REMARKS
LA CROSSE      CLOUDY    75  70  84 S8        29.85R
SPARTA         CLOUDY    73  70  90 S5        29.87S FOG
VIROQUA        CLOUDY    73  73 100 S10       29.90R
BOSCOBEL       CLOUDY    75  71  87 SW5       29.90R FOG
PRAIRIE DU CHI LGT RAIN  73  67  80 SW8       29.89F
PLATTEVILLE    CLOUDY    73  70  89 SW12      29.95R
$$

WIZ056-057-062-063-064-067-068-061600-
SOUTH CENTRAL WISCONSIN

CITY           SKY/WX    TMP DP  RH WIND       PRES   REMARKS
REEDSBURG      CLOUDY    71  69  95 S8        29.89S FOG
BARABOO/DELLS  LGT RAIN  70  67  91 SW10      29.90R
LONE ROCK      CLOUDY    73  70  90 SW5       29.91S FOG
MINERAL POINT  LGT RAIN  73  70  88 SW13      29.94R
MADISON        CLOUDY    76  68  76 SW8       29.90S
MIDDLETON      CLOUDY    75  69  80 SW8       29.92R
WATERTOWN      CLOUDY    75  73  92 S10G16    29.90F
MONROE         CLOUDY    73  70  88 S15       29.93R
JANESVILLE     CLOUDY    81  70  69 S12G17    29.91F HX  84
$$

WIZ051-052-058>065-066-070>072-061600-
SOUTHEAST WISCONSIN

CITY           SKY/WX    TMP DP  RH WIND       PRES   REMARKS
MILWAUKEE      CLOUDY    78  66  66 S14G23    29.95R HX  80
WAUKESHA       SUNNY     73  64  73 S7        29.95S
MILWAUKEE/TIMM SUNNY     75  64  69 S12       29.95S
RACINE         PTSUNNY   74  64  71 S9        29.97S HAZE
BURLINGTON     CLOUDY    76  67  75 S8        29.95S
KENOSHA        PTSUNNY   79  68  69 S13       29.96F HAZE    HX  81
FOND DU LAC    CLOUDY    77  68  73 S12       29.89F
SHEBOYGAN      CLOUDY    74  66  76 S13       29.92F HAZE
WEST BEND      CLOUDY    75  64  69 S9        29.93S
JUNEAU         CLOUDY    74  68  80 S14       29.92S
$$

LSZ147-162-061600-
LAKE SUPERIOR

STATION/POSITION TIME  TEMP    WIND        PRES    WAVE
                       AIR SEA DIR/SP/G            HT/PER
                 (UTC) (F)     (DEG/KT/KT) (MB)    (FT/S)
W MID LAKE BUOY  1450   48 39   20/ 12/ 12 1010.7F   1
DEVILS ISLAND    1500   60      20/ 13/ 15 1011.0S
PORT WING        1500   60      10/ 13/ 16   N/A
SAXON HARBOR     1440   64     350/ 11/ 14 1010.2S
$$

LMZ867-665-643>646-061600-
LAKE MICHIGAN

STATION/POSITION TIME  TEMP    WIND        PRES    WAVE
                       AIR SEA DIR/SP/G            HT/PER
                 (UTC) (F)     (DEG/KT/KT) (MB)    (FT/S)
CHAMBERS ISLAND  1400   71     160/  4/  9 1011.9F
S GREEN BAY BUOY 1500   72 69  180/ 12/ 14 1013.1S
N MID LAKE BUOY  1450   59 55  190/ 16/ 19 1012.2F   2/ 4
NORTHPORT PIER   1400   67     170/  8/ 13 1012.2F
SISTER BAY       1414   71     190/ 14/ 17   N/A
ALGOMA LAKESHORE 1441          210/ 11/ 13   N/A
KEWAUNEE LAKESHO 1500   61     180/ 15/ 17 1012.1F
SHEBOYGAN LAKESH 1500   64     180/ 18/ 19 1013.1F
PORT WASHINGTON  1400   67     190/  8/ 10 1014.6S
ATWATER BUOY     1500   64 59  160/ 10/ 10 1015.5R
MILWAUKEE LAKESH 1500   64     150/ 12/ 14   N/A
KENOSHA   LAKESH 1500   65     170/ 13/ 15 1014.2S
$$

TC  - TEMPERATURE IN CELSIUS
VSB - VISIBILITY IN STATUTE MILES
WCI - WIND CHILL INDEX
HX  - HEAT INDEX



USA.gov is the U.S. government's official web portal to all federal, state and local government web resources and services.